IGO6616 VECC-VEAT

Flight info

Callsign IGO6616
Flight time 0h 33m
Altitude 25000
Route NOKAT2E NOKAT B593 AAT
Aircraft A320/M-SDE3FGHIRWY/LB1

Departure

Time 2026-05-08 10:50
Airport Netaji Subhash Chandra Bose International Airport (VECC)

Arrival

Time 2026-05-08 11:24
Airport Agartala - Maharaja Bir Bikram Airport (VEAT)
Time Latitude Longitude Altitude Speed Heading
2026-05-08 10:31 22.64388 88.44070 29 ft 0 kts 277°
2026-05-08 10:41 22.64386 88.44087 29 ft 2 kts 278°
2026-05-08 10:41 22.64384 88.44105 29 ft 2 kts 276°
2026-05-08 10:41 22.64382 88.44122 29 ft 2 kts 275°
2026-05-08 10:42 22.64381 88.44140 29 ft 2 kts 271°
2026-05-08 10:42 22.64382 88.44158 29 ft 2 kts 248°
2026-05-08 10:42 22.64392 88.44169 29 ft 1 kts 186°
2026-05-08 10:42 22.64395 88.44170 29 ft 0 kts 187°
2026-05-08 10:45 22.64394 88.44170 29 ft 1 kts 187°
2026-05-08 10:45 22.64369 88.44166 29 ft 6 kts 187°
2026-05-08 10:46 22.64315 88.44160 29 ft 10 kts 186°
2026-05-08 10:46 22.64235 88.44149 29 ft 14 kts 187°
2026-05-08 10:46 22.64130 88.44135 29 ft 16 kts 187°
2026-05-08 10:46 22.64021 88.44125 29 ft 11 kts 176°
2026-05-08 10:47 22.63939 88.44160 29 ft 15 kts 149°
2026-05-08 10:47 22.63858 88.44222 29 ft 13 kts 120°
2026-05-08 10:47 22.63918 88.44279 29 ft 15 kts
2026-05-08 10:47 22.64034 88.44292 28 ft 19 kts
2026-05-08 10:48 22.64123 88.44302 28 ft 8 kts
2026-05-08 10:48 22.64168 88.44321 28 ft 6 kts 36°
2026-05-08 10:48 22.64177 88.44367 29 ft 8 kts 84°
2026-05-08 10:48 22.64203 88.44435 30 ft 12 kts 62°
2026-05-08 10:49 22.64243 88.44531 29 ft 16 kts 67°
2026-05-08 10:49 22.64289 88.44633 29 ft 12 kts 49°
2026-05-08 10:49 22.64340 88.44651 28 ft 0 kts
2026-05-08 10:49 22.64397 88.44658 28 ft 35 kts
2026-05-08 10:50 22.64914 88.44719 25 ft 110 kts
2026-05-08 10:50 22.65858 88.44828 33 ft 162 kts
2026-05-08 10:50 22.67009 88.44951 689 ft 165 kts
2026-05-08 10:50 22.68169 88.45115 1412 ft 171 kts 12°
2026-05-08 10:51 22.69338 88.45605 1842 ft 189 kts 34°
2026-05-08 10:51 22.70236 88.46710 2264 ft 209 kts 68°
2026-05-08 10:51 22.70401 88.48327 2726 ft 230 kts 101°
2026-05-08 10:51 22.69957 88.50088 3241 ft 254 kts 99°
2026-05-08 10:52 22.70007 88.52028 3874 ft 269 kts 78°
2026-05-08 10:52 22.70543 88.53987 4770 ft 275 kts 69°
2026-05-08 10:52 22.71246 88.55962 5703 ft 280 kts 67°
2026-05-08 10:52 22.71954 88.57907 6593 ft 284 kts 68°
2026-05-08 10:53 22.72653 88.59934 7451 ft 289 kts 69°
2026-05-08 10:53 22.73320 88.62007 8306 ft 295 kts 70°
2026-05-08 10:53 22.73964 88.64138 9148 ft 300 kts 71°
2026-05-08 10:53 22.74593 88.66317 9961 ft 306 kts 72°
2026-05-08 10:54 22.75238 88.68607 10295 ft 330 kts 72°
2026-05-08 10:54 22.75867 88.71057 10753 ft 344 kts 78°
2026-05-08 10:54 22.76225 88.73650 11419 ft 351 kts 81°
2026-05-08 10:54 22.76581 88.76293 12128 ft 357 kts 81°
2026-05-08 10:55 22.76950 88.78971 12851 ft 362 kts 81°
2026-05-08 10:55 22.77332 88.81694 13542 ft 368 kts 81°
2026-05-08 10:55 22.77723 88.84452 14161 ft 373 kts 81°
2026-05-08 10:55 22.78117 88.87241 14785 ft 377 kts 81°
2026-05-08 10:56 22.78515 88.90071 15402 ft 381 kts 82°
2026-05-08 10:56 22.78918 88.92924 16015 ft 385 kts 81°
2026-05-08 10:56 22.79552 88.95768 16615 ft 390 kts 72°
2026-05-08 10:56 22.80379 88.98579 17222 ft 394 kts 72°
2026-05-08 10:57 22.81218 89.01424 17838 ft 399 kts 72°
2026-05-08 10:57 22.82068 89.04303 18392 ft 403 kts 72°
2026-05-08 10:57 22.83784 89.10143 19418 ft 411 kts 73°
2026-05-08 10:58 22.84652 89.13119 19930 ft 415 kts 73°
2026-05-08 10:58 22.85524 89.16117 20430 ft 420 kts 73°
2026-05-08 10:58 22.86408 89.19156 20935 ft 424 kts 73°
2026-05-08 10:58 22.87298 89.22212 21433 ft 428 kts 73°
2026-05-08 10:59 22.88199 89.25306 21922 ft 432 kts 73°
2026-05-08 10:59 22.89106 89.28419 22386 ft 436 kts 73°
2026-05-08 10:59 22.90022 89.31567 22881 ft 440 kts 73°
2026-05-08 10:59 22.90945 89.34739 23350 ft 444 kts 74°
2026-05-08 11:00 22.91880 89.37951 23738 ft 448 kts 74°
2026-05-08 11:00 22.92809 89.41146 24101 ft 452 kts 74°
2026-05-08 11:00 22.93757 89.44413 24459 ft 456 kts 74°
2026-05-08 11:00 22.94713 89.47710 24739 ft 460 kts 74°
2026-05-08 11:01 22.95669 89.51015 24815 ft 453 kts 74°
2026-05-08 11:01 22.96596 89.54225 24831 ft 439 kts 74°
2026-05-08 11:01 22.97501 89.57364 24831 ft 435 kts 74°
2026-05-08 11:01 22.98404 89.60487 24833 ft 433 kts 74°
2026-05-08 11:02 22.99309 89.63608 24832 ft 433 kts 74°
2026-05-08 11:02 23.01106 89.69836 24833 ft 433 kts 74°
2026-05-08 11:02 23.02003 89.72953 24832 ft 433 kts 74°
2026-05-08 11:03 23.02902 89.76071 24831 ft 433 kts 74°
2026-05-08 11:03 23.03799 89.79186 24831 ft 433 kts 74°
2026-05-08 11:03 23.04695 89.82305 24830 ft 433 kts 74°
2026-05-08 11:03 23.05593 89.85431 24835 ft 433 kts 74°
2026-05-08 11:04 23.06490 89.88553 24837 ft 433 kts 74°
2026-05-08 11:04 23.07384 89.91677 24838 ft 433 kts 74°
2026-05-08 11:04 23.08279 89.94802 24837 ft 434 kts 74°
2026-05-08 11:04 23.09174 89.97931 24838 ft 434 kts 74°
2026-05-08 11:05 23.10060 90.01052 24838 ft 434 kts 75°
2026-05-08 11:05 23.10939 90.04187 24840 ft 434 kts 75°
2026-05-08 11:05 23.11812 90.07328 24842 ft 434 kts 75°
2026-05-08 11:05 23.12681 90.10459 24842 ft 434 kts 75°
2026-05-08 11:06 23.13560 90.13618 24842 ft 435 kts 75°
2026-05-08 11:06 23.14437 90.16758 24845 ft 435 kts 75°
2026-05-08 11:06 23.15329 90.19950 24407 ft 448 kts 75°
2026-05-08 11:06 23.16241 90.23208 23901 ft 448 kts 75°
2026-05-08 11:07 23.17137 90.26411 23658 ft 440 kts 75°
2026-05-08 11:07 23.18021 90.29576 23265 ft 436 kts 75°
2026-05-08 11:07 23.18894 90.32713 22803 ft 432 kts 75°
2026-05-08 11:07 23.19759 90.35824 22351 ft 428 kts 75°
2026-05-08 11:08 23.20615 90.38905 21902 ft 424 kts 75°
2026-05-08 11:08 23.21461 90.41962 21450 ft 421 kts 75°
2026-05-08 11:08 23.22299 90.44989 20995 ft 417 kts 74°
2026-05-08 11:08 23.23144 90.47996 20557 ft 413 kts 74°
2026-05-08 11:09 23.23994 90.50962 20126 ft 410 kts 73°
2026-05-08 11:09 23.24847 90.53908 19687 ft 406 kts 73°
2026-05-08 11:09 23.25691 90.56825 19260 ft 403 kts 73°
2026-05-08 11:09 23.26525 90.59720 18851 ft 400 kts 73°
2026-05-08 11:10 23.27349 90.62587 18447 ft 396 kts 73°
2026-05-08 11:10 23.28163 90.65439 18030 ft 393 kts 73°
2026-05-08 11:10 23.28969 90.68264 17501 ft 386 kts 73°
2026-05-08 11:10 23.29759 90.71031 16670 ft 381 kts 73°
2026-05-08 11:11 23.30543 90.73768 15894 ft 376 kts 73°
2026-05-08 11:11 23.31303 90.76422 15202 ft 369 kts 72°
2026-05-08 11:11 23.32050 90.79040 14774 ft 355 kts 72°
2026-05-08 11:11 23.32764 90.81550 14400 ft 341 kts 72°
2026-05-08 11:12 23.33455 90.83977 14016 ft 331 kts 72°
2026-05-08 11:12 23.34137 90.86376 13631 ft 333 kts 72°
2026-05-08 11:12 23.34820 90.88783 13280 ft 331 kts 72°
2026-05-08 11:12 23.35487 90.91143 13148 ft 321 kts 72°
2026-05-08 11:13 23.36126 90.93408 12876 ft 307 kts 72°
2026-05-08 11:13 23.36747 90.95611 12418 ft 302 kts 72°
2026-05-08 11:13 23.37358 90.97776 11923 ft 298 kts 72°
2026-05-08 11:13 23.37965 90.99924 11439 ft 295 kts 72°
2026-05-08 11:14 23.38563 91.02046 11038 ft 294 kts 72°
2026-05-08 11:14 23.39168 91.04185 10662 ft 296 kts 72°
2026-05-08 11:14 23.39769 91.06314 10468 ft 291 kts 72°
2026-05-08 11:14 23.40359 91.08424 10006 ft 294 kts 72°
2026-05-08 11:15 23.40945 91.10527 9845 ft 286 kts 72°
2026-05-08 11:15 23.41517 91.12575 9399 ft 281 kts 72°
2026-05-08 11:15 23.42087 91.14604 8889 ft 279 kts 72°
2026-05-08 11:15 23.42856 91.16542 8525 ft 281 kts 56°
2026-05-08 11:16 23.43671 91.17659 8371 ft 277 kts 43°
2026-05-08 11:16 23.45170 91.18890 8245 ft 266 kts 26°
2026-05-08 11:16 23.46839 91.19572 8074 ft 248 kts
2026-05-08 11:16 23.48500 91.19849 7872 ft 233 kts
2026-05-08 11:17 23.50050 91.20092 7500 ft 230 kts
2026-05-08 11:17 23.51657 91.20343 6918 ft 237 kts
2026-05-08 11:17 23.53275 91.20598 6509 ft 236 kts
2026-05-08 11:17 23.54900 91.20858 6177 ft 236 kts
2026-05-08 11:18 23.56520 91.21116 5850 ft 235 kts
2026-05-08 11:18 23.58132 91.21376 5556 ft 234 kts
2026-05-08 11:18 23.59749 91.21634 5257 ft 235 kts
2026-05-08 11:18 23.61359 91.21889 5050 ft 231 kts
2026-05-08 11:19 23.62935 91.22142 4813 ft 228 kts
2026-05-08 11:19 23.64500 91.22394 4537 ft 227 kts
2026-05-08 11:19 23.66058 91.22643 4248 ft 226 kts
2026-05-08 11:19 23.67612 91.22890 3954 ft 225 kts
2026-05-08 11:20 23.69162 91.23119 3666 ft 224 kts
2026-05-08 11:20 23.70722 91.23184 3379 ft 224 kts
2026-05-08 11:20 23.72260 91.23240 3075 ft 216 kts
2026-05-08 11:20 23.73734 91.23293 2801 ft 208 kts
2026-05-08 11:21 23.75127 91.23345 2548 ft 193 kts
2026-05-08 11:21 23.76443 91.23393 2281 ft 186 kts
2026-05-08 11:21 23.77724 91.23440 2028 ft 182 kts
2026-05-08 11:21 23.78968 91.23485 1790 ft 177 kts
2026-05-08 11:22 23.80171 91.23529 1567 ft 167 kts
2026-05-08 11:22 23.81274 91.23570 1370 ft 151 kts
2026-05-08 11:22 23.82305 91.23610 1150 ft 145 kts
2026-05-08 11:22 23.83303 91.23649 966 ft 143 kts
2026-05-08 11:23 23.84192 91.23683 799 ft 142 kts
2026-05-08 11:23 23.85177 91.23720 622 ft 142 kts
2026-05-08 11:23 23.86160 91.23759 447 ft 140 kts
2026-05-08 11:23 23.87131 91.23959 276 ft 143 kts
2026-05-08 11:24 23.88111 91.24036 73 ft 136 kts
2026-05-08 11:24 23.88796 91.24091 59 ft 46 kts
2026-05-08 11:24 23.89057 91.24114 58 ft 36 kts
2026-05-08 11:24 23.89205 91.24138 60 ft 13 kts 40°
2026-05-08 11:25 23.89209 91.24222 64 ft 11 kts 90°
2026-05-08 11:25 23.89182 91.24274 61 ft 9 kts 150°
2026-05-08 11:25 23.89121 91.24256 58 ft 10 kts 234°
2026-05-08 11:25 23.89118 91.24235 61 ft 0 kts 270°
2026-05-08 11:26 23.89118 91.24211 64 ft 6 kts 270°
2026-05-08 11:26 23.89120 91.24156 62 ft 9 kts 268°
2026-05-08 11:26 23.89069 91.24114 60 ft 12 kts 185°
2026-05-08 11:27 23.88971 91.24107 57 ft 16 kts 184°
2026-05-08 11:27 23.88842 91.24095 61 ft 20 kts 184°
2026-05-08 11:27 23.88717 91.24092 59 ft 15 kts 153°
2026-05-08 11:27 23.88695 91.24176 63 ft 11 kts 93°
2026-05-08 11:28 23.88690 91.24260 64 ft 7 kts 95°
2026-05-08 11:28 23.88684 91.24324 64 ft 10 kts 93°
2026-05-08 11:28 23.88683 91.24350 64 ft 0 kts 93°